Location: Peach Mountain Observatory
(42.3967°N, 83.9367°W)
Time: 19:29:13
(UTC-05:00)

Explorer 11/Cluster Stage 4 - Pass Details

Date: 27 January 2020
Orbit: 467 x 1259 km, 28.8° (Epoch: 16 February)

Event Time Altitude Azimuth Distance (km) Brightness Sun altitude
Rises 18:42:53 0° 256° (WSW) 4,051 12.5 -11.3°
Reaches altitude 10° 18:48:22 10° 226° (SW) 2,915 10.5 -12.3°
Maximum altitude 18:50:23 11° 210° (SSW) 2,740 10.0 -12.6°
Drops below altitude 10° 18:52:20 10° 193° (SSW) 2,755 9.7 -13.0°
Sets 18:57:03 0° 161° (SSE) 3,476 9.8 -13.8°
